• In Belarus
  • List of Countries
  • For 7 days
  • Water Temperature
  • Satellite Maps
  • Weather Map
  • Weather Widgets
  • user-avatar
    Login

    Hourly Weather Pleven

    Today, 15 July, Monday

    Time Temperature Precipitation Wind Pressure Humidity
    00:00 +16°C° 0 mm 2 mps 741 mmHg 90%
    01:00 +16°C° 0 mm 2 mps 741 mmHg 90%
    02:00 +16°C° 0 mm 2 mps 740 mmHg 92%
    03:00 +16°C° 0 mm 2 mps 740 mmHg 92%
    04:00 +15°C° 0 mm 1 mps 740 mmHg 91%
    05:00 +15°C° 0 mm 1 mps 740 mmHg 90%
    06:00 +17°C° 0 mm 2 mps 740 mmHg 86%
    07:00 +18°C° 0 mm 2 mps 741 mmHg 81%
    08:00 +20°C° 0 mm 2 mps 741 mmHg 75%
    09:00 +21°C° 0.1 mm 3 mps 741 mmHg 70%
    10:00 +22°C° 0.1 mm 3 mps 740 mmHg 66%
    11:00 +25°C° 0.1 mm 3 mps 740 mmHg 61%
    12:00 +25°C° 0.3 mm 3 mps 740 mmHg 59%
    13:00 +26°C° 0.3 mm 3 mps 740 mmHg 58%
    14:00 +26°C° 0 mm 2 mps 740 mmHg 54%
    15:00 +26°C° 0.4 mm 2 mps 740 mmHg 56%
    16:00 +25°C° 0.4 mm 2 mps 740 mmHg 58%
    17:00 +25°C° 0.4 mm 2 mps 740 mmHg 60%
    18:00 +24°C° 0.2 mm 2 mps 740 mmHg 66%
    19:00 +21°C° 0.2 mm 2 mps 740 mmHg 72%
    20:00 +19°C° 0.2 mm 2 mps 740 mmHg 78%
    21:00 +19°C° 0 mm 2 mps 741 mmHg 78%
    22:00 +18°C° 0 mm 2 mps 741 mmHg 78%
    23:00 +18°C° 0 mm 2 mps 741 mmHg 78%

    Tomorrow, 16 July, Tuesday

    Time Temperature Precipitation Wind Pressure Humidity
    00:00 +18°C° 0 mm 2 mps 741 mmHg 78%
    01:00 +17°C° 0 mm 2 mps 742 mmHg 79%
    02:00 +16°C° 0 mm 2 mps 742 mmHg 80%
    03:00 +16°C° 0 mm 2 mps 742 mmHg 81%
    04:00 +16°C° 0 mm 1 mps 742 mmHg 82%
    05:00 +15°C° 0 mm 1 mps 742 mmHg 83%
    06:00 +17°C° 0 mm 2 mps 742 mmHg 78%
    07:00 +19°C° 0 mm 2 mps 742 mmHg 73%
    08:00 +20°C° 0 mm 2 mps 742 mmHg 69%
    09:00 +21°C° 0 mm 3 mps 742 mmHg 65%
    10:00 +22°C° 0 mm 3 mps 742 mmHg 62%
    11:00 +25°C° 0 mm 3 mps 742 mmHg 59%
    12:00 +25°C° 0 mm 3 mps 742 mmHg 57%
    13:00 +26°C° 0 mm 3 mps 741 mmHg 55%
    14:00 +26°C° 0 mm 2 mps 741 mmHg 53%
    15:00 +27°C° 0 mm 2 mps 741 mmHg 51%
    16:00 +27°C° 0 mm 2 mps 741 mmHg 50%
    17:00 +27°C° 0 mm 1 mps 741 mmHg 48%
    18:00 +25°C° 0 mm 1 mps 741 mmHg 55%
    19:00 +24°C° 0 mm 1 mps 741 mmHg 61%
    20:00 +22°C° 0 mm 1 mps 741 mmHg 68%
    21:00 +21°C° 0 mm 1 mps 741 mmHg 71%
    22:00 +20°C° 0 mm 1 mps 741 mmHg 74%
    23:00 +19°C° 0 mm 1 mps 742 mmHg 77%

    Day after tomorrow, 17 July, Wednesday

    Time Temperature Precipitation Wind Pressure Humidity
    00:00 +19°C° 0 mm 1 mps 742 mmHg 79%
    01:00 +18°C° 0 mm 1 mps 742 mmHg 80%
    02:00 +18°C° 0 mm 1 mps 742 mmHg 82%
    03:00 +18°C° 0 mm 1 mps 742 mmHg 82%
    04:00 +16°C° 0 mm 1 mps 742 mmHg 82%
    05:00 +16°C° 0 mm 1 mps 742 mmHg 82%
    06:00 +17°C° 0 mm 2 mps 742 mmHg 76%
    07:00 +19°C° 0 mm 2 mps 742 mmHg 70%
    08:00 +20°C° 0 mm 2 mps 742 mmHg 64%
    09:00 +23°C° 0 mm 2 mps 742 mmHg 60%
    10:00 +25°C° 0 mm 2 mps 742 mmHg 57%
    11:00 +26°C° 0 mm 3 mps 742 mmHg 53%
    12:00 +27°C° 0 mm 3 mps 742 mmHg 50%
    13:00 +28°C° 0 mm 3 mps 742 mmHg 47%
    14:00 +28°C° 0 mm 3 mps 742 mmHg 44%
    15:00 +28°C° 0 mm 2 mps 741 mmHg 42%
    16:00 +29°C° 0 mm 2 mps 741 mmHg 41%
    17:00 +29°C° 0 mm 2 mps 741 mmHg 40%
    18:00 +27°C° 0 mm 3 mps 741 mmHg 47%
    19:00 +25°C° 0 mm 2 mps 741 mmHg 52%
    20:00 +24°C° 0 mm 2 mps 741 mmHg 58%
    21:00 +21°C° 0 mm 2 mps 741 mmHg 60%
    22:00 +20°C° 0 mm 2 mps 742 mmHg 63%
    23:00 +19°C° 0 mm 2 mps 742 mmHg 66%

    18 July, Thursday

    Time Temperature Precipitation Wind Pressure Humidity
    00:00 +19°C° 0 mm 2 mps 742 mmHg 68%
    01:00 +18°C° 0 mm 2 mps 742 mmHg 71%
    02:00 +18°C° 0 mm 2 mps 742 mmHg 73%
    03:00 +17°C° 0 mm 2 mps 742 mmHg 74%
    04:00 +17°C° 0 mm 2 mps 742 mmHg 76%
    05:00 +17°C° 0 mm 2 mps 742 mmHg 77%
    06:00 +18°C° 0 mm 2 mps 742 mmHg 72%
    07:00 +20°C° 0 mm 2 mps 742 mmHg 67%
    08:00 +23°C° 0 mm 2 mps 742 mmHg 62%
    09:00 +24°C° 0 mm 2 mps 743 mmHg 58%
    10:00 +26°C° 0 mm 2 mps 743 mmHg 54%
    11:00 +27°C° 0 mm 3 mps 743 mmHg 50%
    12:00 +28°C° 0 mm 2 mps 743 mmHg 47%
    13:00 +28°C° 0 mm 2 mps 743 mmHg 45%
    14:00 +29°C° 0 mm 2 mps 742 mmHg 42%
    15:00 +29°C° 0 mm 2 mps 742 mmHg 42%
    16:00 +29°C° 0 mm 2 mps 742 mmHg 42%
    17:00 +30°C° 0 mm 1 mps 742 mmHg 41%
    18:00 +27°C° 0 mm 1 mps 742 mmHg 48%
    19:00 +25°C° 0 mm 1 mps 742 mmHg 55%
    20:00 +23°C° 0 mm 1 mps 743 mmHg 62%
    21:00 +23°C° 0 mm 1 mps 743 mmHg 65%
    22:00 +22°C° 0 mm 1 mps 743 mmHg 67%
    23:00 +21°C° 0 mm 1 mps 744 mmHg 70%

    19 July, Friday

    Time Temperature Precipitation Wind Pressure Humidity
    00:00 +21°C° 0 mm 1 mps 744 mmHg 71%
    01:00 +21°C° 0 mm 1 mps 744 mmHg 72%
    02:00 +20°C° 0 mm 1 mps 744 mmHg 73%
    03:00 +20°C° 0 mm 1 mps 744 mmHg 74%
    04:00 +20°C° 0 mm 1 mps 744 mmHg 74%
    05:00 +19°C° 0 mm 1 mps 744 mmHg 74%
    06:00 +21°C° 0 mm 1 mps 744 mmHg 69%
    07:00 +23°C° 0 mm 1 mps 744 mmHg 64%
    08:00 +25°C° 0 mm 1 mps 745 mmHg 59%
    09:00 +27°C° 0 mm 1 mps 745 mmHg 54%
    10:00 +29°C° 0 mm 1 mps 745 mmHg 50%
    11:00 +30°C° 0 mm 1 mps 745 mmHg 45%
    12:00 +29°C° 0.1 mm 0 mps 745 mmHg 43%
    13:00 +30°C° 0.1 mm 0 mps 744 mmHg 40%
    14:00 +30°C° 0.1 mm 0 mps 744 mmHg 37%
    15:00 +32°C° 0.1 mm 1 mps 744 mmHg 37%
    16:00 +32°C° 0.1 mm 1 mps 744 mmHg 37%
    17:00 +32°C° 0.1 mm 2 mps 744 mmHg 37%
    18:00 +30°C° 0 mm 2 mps 744 mmHg 45%
    19:00 +27°C° 0 mm 2 mps 744 mmHg 53%
    20:00 +25°C° 0 mm 2 mps 744 mmHg 61%
    21:00 +24°C° 0.1 mm 2 mps 745 mmHg 64%
    22:00 +23°C° 0.1 mm 2 mps 745 mmHg 67%
    23:00 +21°C° 0.1 mm 2 mps 746 mmHg 69%

    20 July, Saturday

    Time Temperature Precipitation Wind Pressure Humidity
    00:00 +20°C° 0.2 mm 2 mps 746 mmHg 75%
    01:00 +20°C° 0.2 mm 2 mps 746 mmHg 80%
    02:00 +19°C° 0.2 mm 2 mps 746 mmHg 85%
    03:00 +19°C° 0.1 mm 2 mps 746 mmHg 85%
    04:00 +19°C° 0.1 mm 2 mps 746 mmHg 85%
    05:00 +20°C° 0.1 mm 1 mps 746 mmHg 85%
    06:00 +21°C° 0 mm 1 mps 746 mmHg 80%
    07:00 +23°C° 0 mm 1 mps 747 mmHg 76%
    08:00 +24°C° 0 mm 1 mps 747 mmHg 71%
    09:00 +26°C° 0.1 mm 1 mps 747 mmHg 65%
    10:00 +27°C° 0.1 mm 1 mps 747 mmHg 59%
    11:00 +29°C° 0.1 mm 1 mps 747 mmHg 52%
    12:00 +30°C° 0 mm 1 mps 747 mmHg 48%
    13:00 +31°C° 0 mm 1 mps 747 mmHg 44%
    14:00 +32°C° 0 mm 1 mps 747 mmHg 40%
    15:00 +32°C° 0 mm 2 mps 747 mmHg 40%
    16:00 +32°C° 0 mm 2 mps 747 mmHg 39%
    17:00 +32°C° 0 mm 2 mps 747 mmHg 38%
    18:00 +30°C° 0 mm 1 mps 747 mmHg 44%
    19:00 +28°C° 0 mm 1 mps 747 mmHg 50%
    20:00 +26°C° 0 mm 1 mps 747 mmHg 56%
    21:00 +25°C° 0 mm 1 mps 748 mmHg 58%
    22:00 +24°C° 0 mm 1 mps 748 mmHg 59%
    23:00 +23°C° 0 mm 1 mps 748 mmHg 61%
    Show more